Weather History for Bentonville, AR

Change the Weather History Date:

Monday, November 25, 2013

  Actual Average Record
Temperature  
Mean Temperature 32 °F -  
Max Temperature 35 °F 54 °F 78 °F (1965)
Min Temperature 30 °F 32 °F 14 °F (1950)
Degree Days  
Heating Degree Days 32    
Moisture  
Dew Point 22 °F    
Average Humidity 64    
Maximum Humidity 81    
Minimum Humidity 41    
Precipitation  
Precipitation 0.00 in - - ()
Sea Level Pressure  
Sea Level Pressure 30.22 in    
Wind  
Wind Speed 5 mph (SW)    
Max Wind Speed 9 mph    
Max Gust Speed -    
Visibility 10 miles    
Events      
Averages and records for this station are not official NWS values.
T = Trace of Precipitation, MM = Missing Value Source: NWS Daily Summary

Daily Weather History Graph

Daily Weather History Graph

Search for Another Location

Airport:

Trip Planner

Search our weather history database for the weather conditions in past years. The results will help you decide how hot, cold, wet, or windy it might be!

Date:

Astronomy

Nov. 25, 2013 Rise Set
Actual Time 7:04 AM CST 5:03 PM CST
Civil Twilight 6:36 AM CST 5:31 PM CST
Nautical Twilight 6:04 AM CST 6:02 PM CST
Astronomical Twilight 5:33 AM CST 6:33 PM CST
Moon No Moon Rise 12:28 PM CST (11/25)
Length of Visible Light 10h 54m
Length of Day
9h 58m
Waning Gibbous, 51% of the Moon is Illuminated
Nov 25
Waning Gibbous
Nov 25
Last Quarter
Dec 2
New
Dec 9
First Quarter
Dec 17
Full

Hourly Weather History & Observations

Time (CST) Temp. Windchill Dew Point Humidity Pressure Visibility Wind Dir Wind Speed Gust Speed Precip Events Conditions
12:15 AM 32.0 °F 24.8 °F 12.2 °F 44% 30.30 in 10.0 mi ESE 8.1 mph - N/A   Overcast
12:35 AM 32.0 °F 26.4 °F 15.8 °F 51% 30.30 in 10.0 mi ESE 5.8 mph - N/A   Overcast
12:55 AM 32.0 °F 27.5 °F 14.0 °F 48% 30.29 in 10.0 mi ESE 4.6 mph - N/A   Overcast
1:15 AM 32.0 °F 26.4 °F 14.0 °F 48% 30.28 in 10.0 mi ESE 5.8 mph - N/A   Overcast
1:35 AM 32.0 °F 26.4 °F 12.2 °F 44% 30.29 in 10.0 mi SE 5.8 mph - N/A   Overcast
1:55 AM 32.0 °F 26.4 °F 12.2 °F 44% 30.28 in 10.0 mi SE 5.8 mph - N/A   Overcast
2:15 AM 32.0 °F 27.5 °F 14.0 °F 48% 30.28 in 10.0 mi SE 4.6 mph - N/A   Overcast
2:35 AM 32.0 °F 27.5 °F 12.2 °F 44% 30.28 in 10.0 mi SSE 4.6 mph - N/A   Overcast
2:55 AM 32.0 °F 27.5 °F 12.2 °F 44% 30.28 in 10.0 mi SE 4.6 mph - N/A   Overcast
3:15 AM 32.0 °F 27.5 °F 12.2 °F 44% 30.27 in 10.0 mi SSE 4.6 mph - N/A   Overcast
3:35 AM 33.8 °F 28.6 °F 12.2 °F 41% 30.27 in 10.0 mi SSE 5.8 mph - N/A   Overcast
3:55 AM 33.8 °F 29.6 °F 14.0 °F 44% 30.27 in 10.0 mi SSW 4.6 mph - N/A   Overcast
4:15 AM 33.8 °F 29.6 °F 14.0 °F 44% 30.25 in 10.0 mi South 4.6 mph - N/A   Overcast
4:35 AM 33.8 °F 29.6 °F 12.2 °F 41% 30.25 in 10.0 mi South 4.6 mph - N/A   Overcast
4:55 AM 33.8 °F 27.0 °F 12.2 °F 41% 30.25 in 10.0 mi SSE 8.1 mph - N/A   Overcast
5:15 AM 33.8 °F 27.7 °F 12.2 °F 41% 30.25 in 10.0 mi South 6.9 mph - N/A   Overcast
5:35 AM 33.8 °F 27.0 °F 12.2 °F 41% 30.25 in 10.0 mi SSW 8.1 mph - N/A   Overcast
5:55 AM 32.0 °F 24.2 °F 15.8 °F 51% 30.26 in 10.0 mi South 9.2 mph - N/A   Overcast
6:15 AM 30.2 °F 22.6 °F 19.4 °F 64% 30.27 in 10.0 mi SSW 8.1 mph - N/A   Overcast
6:35 AM 30.2 °F 24.3 °F 19.4 °F 64% 30.25 in 10.0 mi SSW 5.8 mph - N/A   Overcast
6:55 AM 30.2 °F 25.4 °F 21.2 °F 69% 30.26 in 10.0 mi SSW 4.6 mph - N/A   Overcast
7:15 AM 30.2 °F 23.4 °F 19.4 °F 64% 30.26 in 10.0 mi SSW 6.9 mph - N/A   Overcast
7:35 AM 30.2 °F 23.4 °F 21.2 °F 69% 30.26 in 10.0 mi South 6.9 mph - N/A   Overcast
7:55 AM 30.2 °F 22.6 °F 21.2 °F 69% 30.24 in 10.0 mi South 8.1 mph - N/A   Overcast
8:15 AM 30.2 °F 22.6 °F 21.2 °F 69% 30.26 in 10.0 mi SSW 8.1 mph - N/A   Overcast
8:35 AM 30.2 °F 26.7 °F 21.2 °F 69% 30.25 in 10.0 mi South 3.5 mph - N/A   Overcast
8:55 AM 30.2 °F 26.7 °F 21.2 °F 69% 30.24 in 10.0 mi SSE 3.5 mph - N/A   Overcast
9:15 AM 30.2 °F 25.4 °F 21.2 °F 69% 30.26 in 10.0 mi South 4.6 mph - N/A   Overcast
9:35 AM 30.2 °F 24.3 °F 21.2 °F 69% 30.27 in 10.0 mi South 5.8 mph - N/A   Overcast
9:55 AM 30.2 °F - 21.2 °F 69% 30.25 in 10.0 mi Calm Calm - N/A   Overcast
10:15 AM 32.0 °F 26.4 °F 21.2 °F 64% 30.25 in 10.0 mi SSE 5.8 mph - N/A   Mostly Cloudy
10:35 AM 33.8 °F 30.8 °F 21.2 °F 60% 30.24 in 10.0 mi SSE 3.5 mph - N/A   Overcast
10:55 AM 33.8 °F 29.6 °F 21.2 °F 60% 30.24 in 10.0 mi SSW 4.6 mph - N/A   Overcast
11:15 AM 33.8 °F 29.6 °F 21.2 °F 60% 30.24 in 10.0 mi SW 4.6 mph - N/A   Overcast
11:35 AM 33.8 °F 30.8 °F 21.2 °F 60% 30.23 in 10.0 mi SW 3.5 mph - N/A   Overcast
11:55 AM 33.8 °F 28.6 °F 21.2 °F 60% 30.22 in 10.0 mi WSW 5.8 mph - N/A   Overcast
12:35 PM 33.8 °F - 24.8 °F 70% 30.20 in 10.0 mi Calm Calm - N/A   Overcast
12:55 PM 35.6 °F 32.8 °F 24.8 °F 65% 30.20 in 10.0 mi SW 3.5 mph - N/A   Overcast
1:15 PM 33.8 °F - 24.8 °F 70% 30.20 in 10.0 mi Calm Calm - N/A   Overcast
1:35 PM 33.8 °F 29.6 °F 26.6 °F 75% 30.18 in 10.0 mi WNW 4.6 mph - N/A   Overcast
1:55 PM 35.6 °F 32.8 °F 26.6 °F 70% 30.16 in 10.0 mi WSW 3.5 mph - N/A   Overcast
2:15 PM 35.6 °F 32.8 °F 26.6 °F 70% 30.15 in 10.0 mi WNW 3.5 mph - N/A   Overcast
2:35 PM 35.6 °F 32.8 °F 26.6 °F 70% 30.17 in 10.0 mi West 3.5 mph - N/A   Overcast
2:55 PM 35.6 °F 31.7 °F 26.6 °F 70% 30.18 in 10.0 mi SSW 4.6 mph - N/A   Overcast
3:15 PM 35.6 °F 31.7 °F 26.6 °F 70% 30.16 in 10.0 mi West 4.6 mph - N/A   Overcast
3:35 PM 35.6 °F - 26.6 °F 70% 30.16 in 10.0 mi Calm Calm - N/A   Overcast
3:55 PM 35.6 °F - 26.6 °F 70% 30.17 in 10.0 mi Calm Calm - N/A   Overcast
4:15 PM 35.6 °F 32.8 °F 26.6 °F 70% 30.17 in 10.0 mi WNW 3.5 mph - N/A   Overcast
4:35 PM 35.6 °F 32.8 °F 26.6 °F 70% 30.18 in 10.0 mi West 3.5 mph - N/A   Overcast
4:55 PM 35.6 °F - 26.6 °F 70% 30.18 in 10.0 mi Calm Calm - N/A   Overcast
5:15 PM 35.6 °F - 26.6 °F 70% 30.17 in 9.0 mi Calm Calm - N/A   Overcast
5:35 PM 35.6 °F 32.8 °F 26.6 °F 70% 30.17 in 10.0 mi NNW 3.5 mph - N/A   Overcast
5:55 PM 35.6 °F 30.7 °F 26.6 °F 70% 30.16 in 10.0 mi North 5.8 mph - N/A   Overcast
6:15 PM 35.6 °F 29.2 °F 26.6 °F 70% 30.17 in 10.0 mi North 8.1 mph - N/A   Overcast
6:35 PM 35.6 °F 29.9 °F 26.6 °F 70% 30.17 in 10.0 mi NNW 6.9 mph - N/A   Overcast
6:55 PM 33.8 °F 28.6 °F 26.6 °F 75% 30.16 in 10.0 mi North 5.8 mph - N/A   Overcast
7:15 PM 33.8 °F 27.7 °F 26.6 °F 75% 30.16 in 10.0 mi North 6.9 mph - N/A   Overcast
7:35 PM 33.8 °F 28.6 °F 26.6 °F 75% 30.17 in 10.0 mi NNW 5.8 mph - N/A   Overcast
7:55 PM 33.8 °F 28.6 °F 26.6 °F 75% 30.16 in 10.0 mi North 5.8 mph - N/A   Overcast
8:15 PM 33.8 °F 27.0 °F 26.6 °F 75% 30.16 in 10.0 mi North 8.1 mph - N/A   Overcast
8:35 PM 33.8 °F 26.4 °F 26.6 °F 75% 30.16 in 10.0 mi North 9.2 mph - N/A   Overcast
8:55 PM 33.8 °F 29.6 °F 28.4 °F 81% 30.17 in 10.0 mi NNE 4.6 mph - N/A   Overcast
9:15 PM 33.8 °F 29.6 °F 28.4 °F 81% 30.17 in 10.0 mi North 4.6 mph - N/A   Overcast
9:35 PM 33.8 °F - 28.4 °F 81% 30.18 in 10.0 mi Calm Calm - N/A   Overcast
9:55 PM 33.8 °F 30.8 °F 28.4 °F 81% 30.17 in 10.0 mi NNW 3.5 mph - N/A   Overcast
10:15 PM 33.8 °F 28.6 °F 28.4 °F 81% 30.15 in 10.0 mi North 5.8 mph - N/A   Overcast
10:35 PM 33.8 °F 29.6 °F 28.4 °F 81% 30.16 in 10.0 mi NW 4.6 mph - N/A   Overcast
10:55 PM 33.8 °F 30.8 °F 28.4 °F 81% 30.17 in 10.0 mi NNW 3.5 mph - N/A   Overcast
11:15 PM 33.8 °F 28.6 °F 26.6 °F 75% 30.16 in 10.0 mi NNW 5.8 mph - N/A   Overcast
11:35 PM 33.8 °F - 26.6 °F 75% 30.18 in 10.0 mi Calm Calm - N/A   Overcast
11:55 PM 33.8 °F 30.8 °F 26.6 °F 75% 30.17 in 10.0 mi North 3.5 mph - N/A   Overcast